CFG2AW LIMJ-EDDL

Flight info

Callsign CFG2AW
Flight time N/A
Altitude 18000
Route LAGEN Q712 KEMMI/N0453F360 DCT SRN DCT PEPAG DCT ABESI DCT LOKTA/N0456F370 DCT TEDGO DCT HAREM DCT LOHRE/N0453F360 Z850 ARPEG/N0404F240 Z850 ADEMI T854 DOMUX DOMUX1A
Aircraft A321/M-SDE3FGHIRWY/LB1

Departure

Time 2026-05-08 20:01
Airport Genoa Cristoforo Colombo Airport (LIMJ)

Arrival

Time N/A
Airport Düsseldorf Airport (EDDL)
Time Latitude Longitude Altitude Speed Heading
2026-05-08 19:24 44.41414 8.85037 20 ft 0 kts 15°
2026-05-08 19:52 44.41397 8.85030 24 ft 4 kts 20°
2026-05-08 19:53 44.41372 8.85015 21 ft 4 kts 33°
2026-05-08 19:53 44.41353 8.84991 21 ft 4 kts 66°
2026-05-08 19:53 44.41350 8.84969 23 ft 0 kts 103°
2026-05-08 19:55 44.41345 8.84995 23 ft 55 kts 102°
2026-05-08 19:56 44.41340 8.85017 23 ft 90 kts 103°
2026-05-08 19:57 44.41361 8.84901 21 ft 98 kts 103°
2026-05-08 19:59 44.40967 8.85353 19 ft 0 kts 285°
2026-05-08 20:00 44.40991 8.85233 17 ft 54 kts 286°
2026-05-08 20:00 44.41184 8.84297 24 ft 142 kts 286°
2026-05-08 20:00 44.41488 8.82686 323 ft 181 kts 288°
2026-05-08 20:01 44.41698 8.81020 1350 ft 177 kts 270°
2026-05-08 20:01 44.41271 8.79330 2004 ft 199 kts 232°
2026-05-08 20:01 44.40076 8.78315 2934 ft 208 kts 191°
2026-05-08 20:01 44.38666 8.78569 4021 ft 207 kts 155°
2026-05-08 20:02 44.37391 8.79476 5161 ft 205 kts 153°
2026-05-08 20:02 44.36131 8.80398 6361 ft 204 kts 154°
2026-05-08 20:02 44.34864 8.81306 7446 ft 206 kts 159°
2026-05-08 20:02 44.33459 8.81706 8401 ft 209 kts 183°
2026-05-08 20:03 44.31991 8.81611 9395 ft 213 kts 184°
2026-05-08 20:03 44.30462 8.81501 10157 ft 228 kts 184°
2026-05-08 20:03 44.28840 8.81383 10963 ft 237 kts 184°
2026-05-08 20:03 44.27176 8.81267 11856 ft 242 kts 184°
2026-05-08 20:04 44.25476 8.81153 12770 ft 246 kts 184°
2026-05-08 20:04 44.23749 8.81038 13685 ft 250 kts 183°
2026-05-08 20:04 44.21981 8.80728 14238 ft 267 kts 201°
2026-05-08 20:04 44.20391 8.79298 14749 ft 280 kts 230°
2026-05-08 20:05 44.19237 8.77088 15521 ft 285 kts 236°
2026-05-08 20:05 44.18102 8.74801 16359 ft 289 kts 236°
2026-05-08 20:05 44.16995 8.72449 17164 ft 292 kts 245°
2026-05-08 20:05 44.16448 8.69728 17836 ft 299 kts 267°
2026-05-08 20:06 44.16541 8.67780 17989 ft 313 kts 283°
2026-05-08 20:06 44.17502 8.64957 18067 ft 339 kts 309°
2026-05-08 20:06 44.19409 8.62848 18079 ft 366 kts 331°
2026-05-08 20:06 44.21772 8.61213 18067 ft 391 kts 334°
2026-05-08 20:07 44.24311 8.59559 18073 ft 413 kts 334°
2026-05-08 20:07 44.26989 8.57855 18073 ft 433 kts 335°
2026-05-08 20:07 44.29771 8.56091 18065 ft 438 kts 334°
2026-05-08 20:07 44.32535 8.54340 18069 ft 436 kts 336°
2026-05-08 20:08 44.35425 8.53079 18064 ft 437 kts 348°
2026-05-08 20:08 44.38463 8.52831 18072 ft 439 kts
2026-05-08 20:08 44.41452 8.53729 18069 ft 442 kts 19°
2026-05-08 20:08 44.44215 8.55625 18071 ft 443 kts 27°
2026-05-08 20:09 44.46924 8.57683 18071 ft 443 kts 27°
2026-05-08 20:09 44.49625 8.59761 18064 ft 443 kts 28°
2026-05-08 20:09 44.52331 8.61848 18068 ft 443 kts 28°
2026-05-08 20:09 44.55067 8.63822 18066 ft 442 kts 21°
2026-05-08 20:10 44.58022 8.64940 18067 ft 440 kts
2026-05-08 20:10 44.61042 8.65690 18068 ft 440 kts
2026-05-08 20:10 44.64063 8.66428 18071 ft 441 kts
2026-05-08 20:10 44.67083 8.67158 18076 ft 441 kts
2026-05-08 20:11 44.70106 8.67885 18084 ft 441 kts
2026-05-08 20:11 44.73129 8.68611 18087 ft 441 kts
2026-05-08 20:11 44.76155 8.69341 18091 ft 441 kts
2026-05-08 20:11 44.79177 8.70078 18092 ft 441 kts
2026-05-08 20:12 44.82203 8.70820 18090 ft 441 kts
2026-05-08 20:12 44.85228 8.71563 18088 ft 441 kts
2026-05-08 20:12 44.88248 8.72304 18092 ft 441 kts
2026-05-08 20:12 44.91275 8.73046 18086 ft 441 kts
2026-05-08 20:13 44.94296 8.73787 18089 ft 441 kts
2026-05-08 20:13 44.97323 8.74529 18082 ft 442 kts
2026-05-08 20:13 45.00351 8.75270 18120 ft 442 kts
2026-05-08 20:13 45.03379 8.76014 18119 ft 442 kts
2026-05-08 20:14 45.06371 8.76749 18118 ft 442 kts
2026-05-08 20:14 45.09399 8.77492 18120 ft 442 kts
2026-05-08 20:14 45.12430 8.78239 18122 ft 442 kts
2026-05-08 20:14 45.15455 8.78987 18120 ft 442 kts
2026-05-08 20:15 45.18486 8.79738 18121 ft 442 kts
2026-05-08 20:15 45.21522 8.80490 18118 ft 442 kts
2026-05-08 20:15 45.24552 8.81241 18107 ft 442 kts
2026-05-08 20:15 45.27579 8.81987 18102 ft 442 kts
2026-05-08 20:16 45.30616 8.82737 18103 ft 442 kts
2026-05-08 20:16 45.33647 8.83488 18102 ft 442 kts
2026-05-08 20:16 45.36680 8.84242 18099 ft 442 kts
2026-05-08 20:16 45.39709 8.84999 18097 ft 442 kts
2026-05-08 20:17 45.42737 8.85759 18096 ft 442 kts
2026-05-08 20:17 45.45770 8.86519 18098 ft 442 kts
2026-05-08 20:17 45.48797 8.87278 18097 ft 442 kts
2026-05-08 20:17 45.51823 8.88038 18094 ft 442 kts
2026-05-08 20:18 45.54852 8.88797 18094 ft 442 kts
2026-05-08 20:18 45.57877 8.89554 18091 ft 441 kts
2026-05-08 20:18 45.60903 8.90311 18089 ft 441 kts
2026-05-08 20:18 45.63925 8.91067 18090 ft 441 kts
2026-05-08 20:19 45.66949 8.91824 18087 ft 441 kts
2026-05-08 20:19 45.69972 8.92583 18085 ft 441 kts
2026-05-08 20:19 45.72999 8.93346 18089 ft 442 kts
2026-05-08 20:19 45.76027 8.94113 18095 ft 442 kts
2026-05-08 20:20 45.79054 8.94881 18101 ft 442 kts
2026-05-08 20:20 45.82076 8.95647 18112 ft 442 kts
2026-05-08 20:20 45.85106 8.96415 18113 ft 442 kts
2026-05-08 20:20 45.88131 8.97180 18115 ft 442 kts
2026-05-08 20:21 45.91153 8.97946 18112 ft 442 kts
2026-05-08 20:21 45.94183 8.98717 18119 ft 442 kts
2026-05-08 20:21 45.97212 8.99489 18116 ft 442 kts
2026-05-08 20:21 46.00240 9.00262 18117 ft 442 kts
2026-05-08 20:22 46.03266 9.01037 18129 ft 442 kts
2026-05-08 20:22 46.06297 9.01810 18128 ft 442 kts
2026-05-08 20:22 46.09326 9.02579 18122 ft 442 kts
2026-05-08 20:22 46.12348 9.03346 18122 ft 441 kts
2026-05-08 20:23 46.15335 9.04092 18112 ft 441 kts
2026-05-08 20:23 46.18427 9.04445 18110 ft 440 kts
2026-05-08 20:23 46.21448 9.04650 18112 ft 440 kts
2026-05-08 20:23 46.24503 9.04856 18114 ft 440 kts
2026-05-08 20:24 46.27561 9.05060 18114 ft 440 kts
2026-05-08 20:24 46.30613 9.05263 18112 ft 440 kts
2026-05-08 20:24 46.33669 9.05467 18109 ft 440 kts
2026-05-08 20:24 46.36726 9.05671 18106 ft 440 kts
2026-05-08 20:25 46.39781 9.05876 18104 ft 440 kts
2026-05-08 20:25 46.42840 9.06087 18106 ft 440 kts
2026-05-08 20:25 46.45899 9.06301 18103 ft 440 kts
2026-05-08 20:25 46.48959 9.06512 18103 ft 440 kts
2026-05-08 20:26 46.52012 9.06721 18104 ft 440 kts
2026-05-08 20:26 46.55067 9.06931 18101 ft 440 kts
2026-05-08 20:26 46.58124 9.07141 18100 ft 440 kts
2026-05-08 20:26 46.61185 9.07352 18111 ft 440 kts
2026-05-08 20:27 46.64242 9.07559 18111 ft 440 kts
2026-05-08 20:27 46.67301 9.07762 18111 ft 440 kts
2026-05-08 20:27 46.70360 9.07967 18105 ft 440 kts
2026-05-08 20:27 46.73415 9.08174 18108 ft 440 kts
2026-05-08 20:28 46.76475 9.08383 18104 ft 440 kts
2026-05-08 20:28 46.79530 9.08594 18097 ft 439 kts
2026-05-08 20:28 46.82583 9.08807 18101 ft 439 kts
2026-05-08 20:28 46.85634 9.09019 18095 ft 439 kts
2026-05-08 20:29 46.88689 9.09228 18088 ft 439 kts
2026-05-08 20:29 46.91740 9.09440 18078 ft 439 kts
2026-05-08 20:29 46.94792 9.09654 18076 ft 439 kts
2026-05-08 20:29 46.97846 9.09862 18078 ft 439 kts
2026-05-08 20:30 47.00898 9.10067 18078 ft 439 kts
2026-05-08 20:30 47.03952 9.10271 18081 ft 439 kts
2026-05-08 20:30 47.07002 9.10483 18080 ft 440 kts
2026-05-08 20:30 47.10057 9.10700 18080 ft 439 kts
2026-05-08 20:31 47.13110 9.10917 18070 ft 439 kts
2026-05-08 20:31 47.16169 9.11135 18071 ft 440 kts
2026-05-08 20:31 47.19186 9.11351 18065 ft 440 kts
2026-05-08 20:31 47.22279 9.11569 18066 ft 439 kts
2026-05-08 20:32 47.25332 9.11780 18071 ft 440 kts
2026-05-08 20:32 47.28387 9.11994 18062 ft 440 kts
2026-05-08 20:32 47.31443 9.12207 18069 ft 440 kts
2026-05-08 20:32 47.34501 9.12418 18068 ft 440 kts
2026-05-08 20:33 47.37556 9.12628 18064 ft 440 kts
2026-05-08 20:33 47.40615 9.12839 18063 ft 440 kts
2026-05-08 20:33 47.43630 9.13054 18059 ft 440 kts
2026-05-08 20:33 47.46686 9.13276 18065 ft 440 kts
2026-05-08 20:34 47.49734 9.13495 18062 ft 439 kts
2026-05-08 20:34 47.52792 9.13707 18058 ft 439 kts
2026-05-08 20:34 47.58940 9.14137 18055 ft 439 kts
2026-05-08 20:35 47.61992 9.14359 18053 ft 439 kts
2026-05-08 20:35 47.65041 9.14579 18062 ft 439 kts
2026-05-08 20:35 47.68053 9.14795 18057 ft 439 kts
2026-05-08 20:35 47.71146 9.15016 18054 ft 439 kts
2026-05-08 20:36 47.74162 9.15231 18057 ft 439 kts
2026-05-08 20:36 47.77206 9.15446 18055 ft 439 kts
2026-05-08 20:36 47.80268 9.15662 18053 ft 439 kts
2026-05-08 20:36 47.83324 9.15879 18053 ft 440 kts
2026-05-08 20:37 47.86380 9.16095 18061 ft 440 kts
2026-05-08 20:37 47.89435 9.16313 18061 ft 440 kts
2026-05-08 20:37 47.92532 9.16536 18060 ft 440 kts
2026-05-08 20:37 47.95551 9.16752 18062 ft 440 kts
2026-05-08 20:38 47.98648 9.16974 18064 ft 440 kts
2026-05-08 20:38 48.01668 9.17189 18065 ft 440 kts
2026-05-08 20:38 48.04765 9.17411 18066 ft 440 kts
2026-05-08 20:38 48.07788 9.17629 18074 ft 440 kts
2026-05-08 20:39 48.10850 9.17854 18078 ft 440 kts
2026-05-08 20:39 48.13911 9.18078 18077 ft 441 kts
2026-05-08 20:39 48.16973 9.18307 18077 ft 441 kts
2026-05-08 20:39 48.20074 9.18661 18081 ft 441 kts
2026-05-08 20:40 48.23088 9.19136 18077 ft 442 kts
2026-05-08 20:40 48.26174 9.19706 18076 ft 442 kts
2026-05-08 20:40 48.29188 9.20295 18086 ft 442 kts
2026-05-08 20:40 48.32240 9.20881 18085 ft 442 kts
2026-05-08 20:41 48.35292 9.21436 18087 ft 442 kts
2026-05-08 20:41 48.38343 9.21965 18089 ft 442 kts
2026-05-08 20:41 48.41399 9.22479 18088 ft 442 kts
2026-05-08 20:41 48.44460 9.22983 18088 ft 442 kts
2026-05-08 20:42 48.47510 9.23486 18085 ft 442 kts
2026-05-08 20:42 48.50567 9.24000 18085 ft 442 kts
2026-05-08 20:42 48.53631 9.24523 18105 ft 442 kts
2026-05-08 20:42 48.56683 9.25044 18109 ft 442 kts
2026-05-08 20:43 48.59743 9.25567 18113 ft 442 kts
2026-05-08 20:43 48.62798 9.26090 18115 ft 442 kts
2026-05-08 20:43 48.65853 9.26587 18117 ft 442 kts
2026-05-08 20:43 48.68914 9.27054 18118 ft 442 kts
2026-05-08 20:44 48.71977 9.27505 18161 ft 442 kts
2026-05-08 20:44 48.75030 9.27952 18905 ft 436 kts
2026-05-08 20:44 48.78034 9.28398 19690 ft 433 kts
2026-05-08 20:44 48.81039 9.28849 20258 ft 435 kts
2026-05-08 20:45 48.84060 9.29308 20763 ft 438 kts
2026-05-08 20:45 48.86070 9.29617 21093 ft 440 kts
2026-05-08 20:45 48.90161 9.30253 21753 ft 443 kts
2026-05-08 20:45 48.93240 9.30727 22247 ft 447 kts
2026-05-08 20:46 48.96344 9.31203 22734 ft 449 kts
2026-05-08 20:46 48.99461 9.31680 23216 ft 453 kts
2026-05-08 20:46 49.02610 9.32166 23682 ft 456 kts
2026-05-08 20:46 49.05770 9.32658 24005 ft 458 kts
2026-05-08 20:47 49.08944 9.33151 24088 ft 458 kts
2026-05-08 20:47 49.12151 9.33649 24175 ft 468 kts
2026-05-08 20:47 49.15422 9.34155 24324 ft 477 kts
2026-05-08 20:47 49.18776 9.34680 24684 ft 479 kts
2026-05-08 20:48 49.22045 9.35192 25139 ft 478 kts
2026-05-08 20:48 49.25393 9.35715 25625 ft 478 kts
2026-05-08 20:48 49.28660 9.36223 26116 ft 477 kts
2026-05-08 20:48 49.31954 9.36739 26629 ft 476 kts
2026-05-08 20:49 49.35237 9.37256 27141 ft 474 kts
2026-05-08 20:49 49.38523 9.37774 27665 ft 473 kts
2026-05-08 20:49 49.41792 9.38292 28187 ft 472 kts
2026-05-08 20:49 49.45053 9.38807 28702 ft 471 kts
2026-05-08 20:50 49.48300 9.39315 29203 ft 469 kts
2026-05-08 20:50 49.51547 9.39823 29704 ft 469 kts
2026-05-08 20:50 49.54792 9.40335 30196 ft 468 kts
2026-05-08 20:50 49.58024 9.40847 30613 ft 467 kts